TimeCDT,TemperatureF,Dew PointF,Humidity,Sea Level PressureIn,VisibilityMPH,Wind Direction,Wind SpeedMPH,Gust SpeedMPH,PrecipitationIn,Events,Conditions,WindDirDegrees,DateUTC
12:30 AM,38.1,27.1,65,30.18,10.0,NW,12.7,17.3,N/A,,Overcast,310,2012-10-26 05:30:00
12:50 AM,38.5,25.2,59,30.18,10.0,NW,17.3,-,N/A,,Overcast,310,2012-10-26 05:50:00
1:10 AM,38.3,25.0,59,30.19,10.0,NW,18.4,27.6,N/A,,Overcast,320,2012-10-26 06:10:00
1:30 AM,38.3,25.5,60,30.19,10.0,NW,12.7,20.7,N/A,,Overcast,310,2012-10-26 06:30:00
1:50 AM,37.8,25.5,61,30.19,10.0,NW,15.0,20.7,N/A,,Overcast,310,2012-10-26 06:50:00
2:10 AM,36.9,25.2,63,30.20,10.0,NW,12.7,-,N/A,,Scattered Clouds,310,2012-10-26 07:10:00
2:30 AM,36.3,24.8,63,30.20,10.0,WNW,11.5,-,N/A,,Clear,300,2012-10-26 07:30:00
2:50 AM,35.8,24.4,63,30.20,10.0,WNW,12.7,17.3,N/A,,Clear,300,2012-10-26 07:50:00
3:30 AM,35.6,24.6,64,30.21,10.0,NW,12.7,-,N/A,,Clear,310,2012-10-26 08:30:00
3:50 AM,35.6,25.2,66,30.21,10.0,WNW,11.5,-,N/A,,Clear,300,2012-10-26 08:50:00
4:10 AM,35.4,25.3,67,30.21,10.0,NW,12.7,-,N/A,,Clear,310,2012-10-26 09:10:00
4:30 AM,35.4,25.7,68,30.21,10.0,NW,11.5,-,N/A,,Clear,310,2012-10-26 09:30:00
4:50 AM,35.1,25.7,69,30.22,10.0,NW,11.5,-,N/A,,Clear,310,2012-10-26 09:50:00
5:30 AM,34.3,25.7,71,30.25,10.0,WNW,10.4,-,N/A,,Clear,300,2012-10-26 10:30:00
5:50 AM,34.0,25.7,72,30.26,10.0,WNW,10.4,-,N/A,,Clear,290,2012-10-26 10:50:00
6:10 AM,33.8,26.2,74,30.27,10.0,WNW,10.4,-,N/A,,Clear,290,2012-10-26 11:10:00
6:30 AM,33.4,26.2,75,30.28,10.0,WNW,11.5,-,N/A,,Clear,300,2012-10-26 11:30:00
6:50 AM,33.8,26.2,74,30.29,10.0,WNW,10.4,-,N/A,,Clear,290,2012-10-26 11:50:00
7:10 AM,33.4,26.1,74,30.31,10.0,West,10.4,-,N/A,,Clear,280,2012-10-26 12:10:00
7:30 AM,33.3,26.1,75,30.32,10.0,West,10.4,-,N/A,,Clear,280,2012-10-26 12:30:00
7:50 AM,33.6,26.1,74,30.33,10.0,West,10.4,-,N/A,,Clear,280,2012-10-26 12:50:00
8:10 AM,34.0,26.4,74,30.34,10.0,West,11.5,-,N/A,,Clear,280,2012-10-26 13:10:00
8:30 AM,34.7,26.6,72,30.34,10.0,WNW,11.5,-,N/A,,Clear,290,2012-10-26 13:30:00
8:50 AM,35.8,26.8,70,30.35,10.0,WNW,12.7,-,N/A,,Clear,300,2012-10-26 13:50:00
9:10 AM,36.9,26.2,65,30.36,10.0,WNW,15.0,-,N/A,,Clear,300,2012-10-26 14:10:00
9:30 AM,37.8,25.7,62,30.36,10.0,WNW,17.3,20.7,N/A,,Clear,300,2012-10-26 14:30:00
9:50 AM,38.3,25.2,59,30.36,10.0,WNW,19.6,25.3,N/A,,Clear,300,2012-10-26 14:50:00
10:10 AM,38.8,24.8,57,30.37,10.0,WNW,20.7,25.3,N/A,,Clear,300,2012-10-26 15:10:00
10:30 AM,39.2,24.1,55,30.37,10.0,NW,19.6,27.6,N/A,,Clear,320,2012-10-26 15:30:00
10:50 AM,40.3,24.3,53,30.37,10.0,NW,13.8,25.3,N/A,,Scattered Clouds,320,2012-10-26 15:50:00
11:10 AM,40.3,23.7,52,30.37,10.0,NW,21.9,28.8,N/A,,Mostly Cloudy,320,2012-10-26 16:10:00
11:30 AM,39.9,23.4,52,30.37,10.0,NNW,17.3,25.3,N/A,,Overcast,340,2012-10-26 16:30:00
11:50 AM,40.3,23.9,52,30.38,10.0,WNW,20.7,26.5,N/A,,Overcast,300,2012-10-26 16:50:00
12:10 PM,40.1,24.4,54,30.37,10.0,NW,13.8,21.9,N/A,,Overcast,320,2012-10-26 17:10:00
12:30 PM,40.1,24.6,54,30.36,10.0,NW,11.5,-,N/A,,Overcast,320,2012-10-26 17:30:00
12:50 PM,40.6,26.1,56,30.36,10.0,NW,11.5,-,N/A,,Overcast,310,2012-10-26 17:50:00
1:09 PM,40.3,25.5,56,30.36,10.0,NNW,15.0,18.4,N/A,,Overcast,330,2012-10-26 18:09:00
1:30 PM,40.1,25.7,56,30.35,10.0,NW,15.0,20.7,N/A,,Overcast,320,2012-10-26 18:30:00
1:50 PM,40.3,25.0,54,30.35,10.0,WNW,13.8,-,N/A,,Overcast,290,2012-10-26 18:50:00
2:10 PM,40.8,25.5,55,30.34,10.0,NNW,10.4,-,N/A,,Overcast,330,2012-10-26 19:10:00
2:30 PM,41.0,25.0,53,30.35,10.0,WNW,15.0,-,N/A,,Overcast,300,2012-10-26 19:30:00
2:50 PM,41.9,24.6,50,30.34,10.0,NW,11.5,17.3,N/A,,Mostly Cloudy,320,2012-10-26 19:50:00
3:10 PM,41.9,24.8,51,30.34,10.0,WNW,15.0,-,N/A,,Overcast,290,2012-10-26 20:10:00
3:30 PM,42.1,24.3,49,30.35,10.0,WNW,11.5,-,N/A,,Overcast,290,2012-10-26 20:30:00
3:50 PM,41.0,24.6,52,30.35,10.0,NW,17.3,-,N/A,,Overcast,310,2012-10-26 20:50:00
4:10 PM,40.6,23.9,51,30.35,10.0,NW,13.8,23.0,N/A,,Overcast,310,2012-10-26 21:10:00
4:30 PM,40.1,24.3,53,30.35,10.0,WNW,15.0,20.7,N/A,,Overcast,300,2012-10-26 21:30:00
4:50 PM,39.4,23.4,53,30.35,10.0,NW,10.4,-,N/A,,Overcast,320,2012-10-26 21:50:00
5:10 PM,39.2,23.9,54,30.35,10.0,WNW,12.7,-,N/A,,Overcast,300,2012-10-26 22:10:00
5:30 PM,39.2,23.9,54,30.35,10.0,WNW,13.8,-,N/A,,Overcast,300,2012-10-26 22:30:00
5:49 PM,39.2,24.6,56,30.35,10.0,WNW,13.8,-,N/A,,Overcast,300,2012-10-26 22:49:00
6:10 PM,38.8,23.7,55,30.35,10.0,NW,10.4,-,N/A,,Overcast,310,2012-10-26 23:10:00
6:30 PM,38.8,22.8,53,30.35,10.0,NW,11.5,-,N/A,,Overcast,310,2012-10-26 23:30:00
6:50 PM,38.7,22.8,53,30.35,10.0,NW,10.4,-,N/A,,Overcast,310,2012-10-26 23:50:00
7:10 PM,38.5,23.4,55,30.36,10.0,WNW,9.2,-,N/A,,Overcast,290,2012-10-27 00:10:00
7:30 PM,38.3,23.0,54,30.36,10.0,WNW,6.9,-,N/A,,Overcast,290,2012-10-27 00:30:00
7:50 PM,38.5,23.7,55,30.36,10.0,West,5.8,-,N/A,,Overcast,280,2012-10-27 00:50:00
8:10 PM,38.3,24.8,58,30.36,10.0,West,6.9,-,N/A,,Overcast,270,2012-10-27 01:10:00
8:30 PM,38.5,26.1,61,30.35,10.0,West,5.8,-,N/A,,Overcast,270,2012-10-27 01:30:00
8:49 PM,38.3,26.8,63,30.35,10.0,West,6.9,-,N/A,,Overcast,270,2012-10-27 01:49:00
9:10 PM,38.3,26.6,63,30.35,10.0,West,6.9,-,N/A,,Overcast,270,2012-10-27 02:10:00
9:30 PM,38.1,27.1,65,30.36,10.0,West,6.9,-,N/A,,Overcast,270,2012-10-27 02:30:00
9:50 PM,37.6,27.5,67,30.36,10.0,West,6.9,-,N/A,,Overcast,270,2012-10-27 02:50:00
10:30 PM,37.0,27.3,68,30.35,10.0,West,5.8,-,N/A,,Overcast,280,2012-10-27 03:30:00
10:50 PM,37.2,27.5,68,30.35,10.0,WNW,5.8,-,N/A,,Overcast,290,2012-10-27 03:50:00
11:10 PM,37.4,27.5,67,30.35,10.0,WNW,6.9,-,N/A,,Overcast,290,2012-10-27 04:10:00
11:30 PM,37.4,27.5,67,30.35,10.0,West,5.8,-,N/A,,Overcast,280,2012-10-27 04:30:00
11:50 PM,37.4,27.5,67,30.35,10.0,West,6.9,-,N/A,,Overcast,280,2012-10-27 04:50:00